Temp
-13 -14 -14 -14 -14 -14 -14 -14 -14 -14 -13 -13 -13 -14 -12 -12 -11 -14 -15 -15 -15 -14 -14 -14 -14 -15 -14 -12 -11 -12 -12 -12 -11 -11 -10 -10 -10 -11 -11 -11 -11 -11 -10 -10
-14 -14 -15 -14 -15 -14 -14 -14 -14 -14 -13 -13 -13 -13 -13 -12 -12 -11 -13 -13 -13 -13 -13 -13 -13 -14 -13 -12 -12 -11 -12 -12 -12 -12 -11 -11 -11 -11 -11 -10 -11 -11 -11 -10
-14 -14 -15 -15 -15 -15 -14 -14 -14 -13 -13 -13 -13 -14 -13 -12 -12 -11 -11 -12 -12 -12 -12 -12 -13 -13 -13 -15 -13 -12 -12 -13 -11 -12 -12 -11 -11 -10 -9 -10 -11 -11 -11 -10
-14 -15 -15 -15 -15 -15 -14 -14 -14 -14 -13 -13 -13 -13 -14 -13 -13 -12 -10 -10 -12 -11 -11 -12 -12 -12 -12 -13 -14 -15 -13 -12 -11 -12 -12 -12 -12 -11 -11 -11 -11 -11 -11 -10
-15 -15 -16 -15 -15 -15 -14 -15 -15 -14 -13 -13 -13 -13 -14 -13 -13 -13 -12 -10 -10 -12 -11 -11 -12 -12 -12 -13 -13 -13 -14 -14 -12 -12 -12 -12 -12 -12 -12 -11 -11 -10 -11 -11
-16 -16 -16 -16 -16 -16 -15 -15 -15 -14 -14 -13 -14 -13 -14 -13 -14 -14 -13 -12 -10 -11 -13 -13 -11 -12 -11 -12 -13 -13 -13 -14 -14 -13 -12 -12 -12 -12 -12 -12 -11 -11 -10 -10
-17 -17 -16 -16 -16 -16 -16 -16 -15 -15 -14 -14 -14 -13 -14 -14 -14 -14 -13 -13 -13 -11 -11 -14 -15 -14 -14 -12 -13 -12 -12 -12 -12 -14 -14 -13 -12 -13 -13 -12 -12 -11 -11 -11
-18 -17 -17 -17 -17 -17 -16 -16 -16 -16 -15 -15 -14 -13 -14 -14 -14 -14 -15 -14 -14 -13 -13 -13 -15 -16 -16 -15 -14 -13 -13 -12 -12 -12 -12 -13 -13 -12 -12 -13 -12 -11 -11 -11
-18 -17 -17 -17 -17 -17 -16 -16 -17 -17 -16 -16 -14 -14 -15 -15 -15 -15 -15 -15 -14 -14 -15 -15 -16 -17 -17 -17 -15 -14 -13 -12 -12 -11 -12 -12 -12 -12 -12 -12 -12 -12 -12 -11
-19 -19 -18 -18 -18 -17 -17 -17 -17 -18 -17 -16 -15 -15 -16 -16 -16 -16 -16 -16 -15 -15 -15 -16 -17 -17 -17 -17 -17 -15 -15 -13 -12 -12 -11 -11 -12 -12 -12 -12 -13 -13 -12 -12
-20 -20 -19 -19 -18 -18 -19 -18 -18 -18 -18 -17 -17 -15 -17 -17 -16 -17 -16 -17 -16 -15 -16 -16 -17 -17 -17 -17 -18 -17 -15 -14 -12 -12 -11 -11 -12 -12 -12 -13 -13 -13 -13 -13
-22 -21 -20 -20 -20 -20 -20 -19 -19 -18 -17 -17 -17 -16 -17 -17 -17 -17 -17 -17 -17 -16 -17 -17 -17 -17 -18 -17 -18 -17 -16 -15 -14 -14 -12 -11 -12 -11 -12 -13 -13 -13 -13 -13
-22 -24 -22 -21 -21 -20 -20 -20 -20 -20 -20 -18 -18 -16 -17 -18 -18 -18 -18 -18 -18 -17 -17 -17 -17 -17 -17 -18 -17 -18 -17 -17 -16 -15 -13 -13 -13 -11 -11 -12 -14 -14 -13 -11
-24 -23 -24 -22 -21 -24 -23 -21 -21 -21 -21 -18 -19 -17 -18 -19 -19 -19 -19 -18 -19 -19 -17 -17 -18 -18 -18 -18 -18 -17 -18 -17 -17 -15 -14 -13 -13 -13 -13 -13 -13 -14 -13 -13
-28 -27 -26 -24 -23 -24 -24 -22 -21 -22 -20 -21 -17 -18 -18 -19 -21 -19 -18 -18 -18 -19 -18 -18 -18 -18 -19 -18 -18 -18 -18 -18 -17 -17 -16 -15 -15 -15 -15 -14 -14 -13 -13 -12
-31 -30 -30 -29 -26 -27 -24 -24 -22 -21 -21 -20 -19 -19 -18 -18 -20 -20 -19 -19 -19 -19 -20 -19 -18 -19 -19 -19 -18 -18 -18 -18 -18 -17 -16 -17 -16 -16 -16 -15 -14 -13 -14 -13
-33 -32 -32 -30 -29 -29 -27 -22 -23 -22 -21 -20 -20 -19 -20 -20 -21 -21 -20 -20 -19 -19 -20 -19 -19 -19 -19 -19 -19 -19 -19 -18 -18 -18 -17 -16 -17 -17 -16 -17 -16 -14 -16 -14
-32 -32 -32 -31 -31 -30 -27 -27 -26 -25 -22 -22 -20 -20 -20 -20 -22 -22 -21 -21 -21 -20 -20 -20 -20 -20 -19 -19 -18 -19 -19 -18 -18 -18 -18 -18 -17 -17 -17 -17 -16 -16 -16 -17
-32 -32 -32 -32 -32 -31 -29 -28 -28 -28 -24 -24 -22 -21 -20 -20 -22 -22 -22 -22 -21 -21 -21 -21 -20 -20 -20 -19 -19 -19 -19 -18 -18 -18 -18 -19 -18 -17 -17 -17 -17 -17 -16 -16
-32 -32 -32 -32 -32 -30 -28 -28 -28 -28 -26 -25 -23 -21 -21 -22 -22 -22 -22 -22 -21 -21 -21 -21 -21 -20 -20 -20 -19 -19 -19 -18 -18 -18 -18 -18 -18 -18 -18 -17 -17 -17 -17 -17
-31 -31 -31 -31 -31 -30 -30 -30 -28 -29 -26 -26 -26 -24 -24 -23 -23 -23 -23 -22 -22 -22 -22 -22 -21 -21 -20 -20 -20 -19 -19 -19 -18 -18 -18 -18 -18 -18 -18 -18 -18 -18 -17 -17
-31 -31 -31 -31 -31 -29 -29 -29 -30 -28 -27 -27 -26 -25 -25 -24 -24 -24 -24 -23 -23 -22 -22 -22 -21 -21 -21 -20 -20 -19 -19 -19 -19 -18 -18 -18 -18 -18 -18 -18 -18 -18 -17 -17
-31 -31 -30 -30 -29 -29 -28 -29 -29 -28 -27 -26 -26 -25 -25 -25 -25 -25 -25 -24 -23 -23 -23 -22 -21 -21 -21 -20 -20 -19 -19 -19 -19 -18 -18 -18 -18 -19 -19 -19 -18 -18 -18 -18
-31 -29 -29 -29 -29 -28 -27 -28 -28 -26 -25 -25 -25 -25 -25 -25 -25 -25 -25 -25 -25 -24 -24 -23 -22 -22 -21 -21 -21 -20 -20 -19 -19 -19 -19 -19 -19 -19 -20 -20 -20 -19 -19 -18
-28 -28 -28 -29 -28 -27 -27 -27 -26 -27 -26 -26 -25 -25 -25 -25 -25 -25 -25 -25 -25 -24 -24 -23 -23 -22 -21 -21 -21 -21 -20 -20 -20 -20 -20 -19 -19 -19 -20 -20 -20 -20 -20 -20
-29 -28 -27 -28 -27 -27 -27 -27 -27 -27 -26 -26 -25 -26 -25 -25 -25 -25 -25 -25 -25 -25 -25 -24 -23 -23 -23 -23 -22 -22 -22 -22 -21 -21 -21 -21 -21 -20 -20 -20 -21 -20 -21 -21
Height
5712 5712 5715 5711 5710 5709 5707 5705 5703 5701 5696 5696 5694 5690 5687 5681 5674 5667 5666 5668 5673 5678 5678 5683 5688 5687 5692 5699 5708 5717 5722 5730 5739 5747 5756 5764 5770 5777 5783 5789 5794 5800 5805 5810
5705 5705 5703 5703 5702 5701 5699 5698 5697 5695 5691 5688 5688 5687 5685 5681 5675 5668 5662 5667 5670 5674 5677 5680 5686 5688 5689 5694 5701 5710 5717 5726 5736 5743 5749 5755 5762 5768 5775 5781 5786 5791 5798 5804
5696 5697 5695 5695 5693 5692 5690 5690 5688 5686 5685 5683 5681 5683 5678 5679 5675 5671 5664 5662 5667 5671 5674 5677 5682 5684 5687 5691 5697 5705 5710 5720 5713 5734 5740 5748 5755 5761 5767 5772 5779 5786 5792 5797
5686 5685 5685 5685 5684 5683 5682 5681 5680 5678 5677 5677 5678 5676 5674 5675 5673 5670 5666 5661 5661 5666 5669 5671 5676 5680 5682 5689 5693 5698 5701 5708 5715 5723 5734 5742 5750 5757 5763 5767 5772 5778 5783 5788
5676 5675 5675 5674 5674 5672 5673 5671 5672 5670 5669 5668 5672 5668 5671 5669 5669 5667 5666 5662 5658 5657 5662 5666 5667 5672 5675 5680 5686 5694 5698 5698 5708 5717 5725 5733 5740 5747 5752 5757 5763 5768 5774 5780
5663 5662 5663 5663 5661 5662 5663 5661 5661 5660 5660 5659 5663 5663 5664 5661 5662 5663 5661 5660 5657 5652 5651 5652 5656 5658 5665 5671 5678 5684 5691 5697 5702 5710 5717 5724 5731 5737 5743 5749 5756 5761 5766 5772
5648 5649 5649 5649 5650 5651 5653 5652 5650 5650 5649 5651 5651 5653 5656 5653 5654 5655 5656 5655 5654 5651 5647 5642 5643 5647 5650 5659 5666 5673 5680 5691 5697 5705 5709 5715 5721 5728 5734 5740 5746 5752 5758 5764
5629 5634 5636 5638 5637 5638 5639 5640 5640 5638 5639 5640 5641 5642 5647 5645 5645 5646 5647 5649 5646 5645 5643 5641 5637 5636 5639 5643 5651 5661 5668 5678 5686 5696 5704 5708 5714 5719 5724 5730 5736 5742 5749 5754
5611 5617 5620 5623 5624 5625 5626 5626 5630 5627 5628 5627 5630 5632 5637 5636 5636 5637 5637 5639 5639 5637 5635 5634 5632 5630 5630 5632 5637 5648 5655 5664 5675 5683 5690 5697 5704 5708 5710 5717 5725 5731 5737 5744
5595 5597 5605 5605 5608 5609 5611 5615 5614 5614 5616 5616 5618 5620 5624 5627 5627 5628 5628 5629 5631 5629 5628 5627 5626 5626 5625 5626 5627 5633 5643 5651 5661 5669 5677 5683 5690 5696 5700 5705 5712 5719 5726 5734
5572 5574 5586 5587 5592 5594 5595 5596 5600 5601 5602 5604 5606 5608 5615 5617 5617 5618 5619 5619 5622 5622 5620 5620 5619 5619 5620 5620 5620 5623 5630 5637 5648 5657 5665 5672 5679 5682 5688 5694 5701 5708 5715 5721
5550 5549 5557 5568 5572 5574 5574 5578 5580 5582 5588 5589 5592 5600 5603 5606 5607 5608 5609 5610 5612 5613 5613 5612 5611 5611 5612 5615 5615 5617 5621 5626 5636 5644 5652 5658 5666 5672 5680 5686 5693 5698 5703 5709
5529 5525 5528 5544 5549 5553 5551 5561 5564 5567 5568 5573 5576 5591 5593 5595 5597 5598 5598 5600 5602 5604 5604 5604 5604 5605 5605 5607 5610 5611 5613 5616 5623 5630 5639 5647 5654 5660 5669 5675 5681 5688 5694 5698
5496 5502 5504 5512 5529 5526 5527 5537 5543 5546 5545 5562 5560 5576 5578 5582 5586 5588 5588 5589 5592 5595 5596 5596 5596 5598 5599 5601 5602 5605 5607 5608 5613 5621 5627 5634 5641 5650 5655 5659 5666 5675 5681 5686
5469 5470 5475 5482 5491 5500 5503 5512 5520 5523 5532 5534 5556 5553 5563 5567 5571 5574 5575 5577 5581 5586 5588 5588 5589 5590 5592 5594 5596 5598 5600 5603 5605 5610 5616 5623 5628 5634 5641 5648 5654 5661 5665 5671
5449 5444 5451 5453 5468 5470 5474 5485 5496 5505 5513 5519 5530 5534 5545 5551 5555 5562 5563 5565 5569 5576 5579 5582 5584 5583 5584 5586 5588 5591 5594 5595 5598 5602 5608 5611 5616 5622 5628 5634 5639 5647 5649 5655
5433 5429 5432 5427 5447 5449 5442 5467 5476 5483 5492 5503 5508 5530 5531 5540 5541 5548 5550 5553 5558 5564 5568 5572 5575 5577 5577 5578 5579 5581 5583 5586 5589 5593 5597 5602 5607 5610 5615 5620 5626 5630 5638 5641
5424 5423 5420 5414 5421 5409 5424 5448 5454 5458 5472 5484 5495 5506 5514 5524 5531 5535 5537 5541 5546 5552 5556 5560 5564 5568 5570 5570 5571 5573 5575 5577 5579 5583 5587 5591 5597 5601 5604 5608 5613 5618 5623 5628
5420 5417 5411 5406 5403 5401 5407 5424 5434 5441 5453 5466 5476 5488 5498 5507 5515 5521 5527 5531 5536 5541 5545 5548 5553 5557 5560 5562 5563 5564 5566 5568 5570 5573 5576 5579 5584 5589 5592 5596 5600 5603 5607 5613
5414 5410 5404 5400 5393 5389 5399 5407 5421 5436 5425 5452 5462 5474 5485 5494 5496 5511 5515 5521 5525 5530 5533 5536 5540 5545 5548 5551 5554 5556 5558 5561 5562 5564 5566 5570 5574 5579 5582 5584 5587 5591 5594 5597
5405 5401 5397 5393 5388 5385 5388 5391 5400 5407 5425 5449 5459 5466 5473 5479 5489 5494 5499 5508 5512 5516 5520 5525 5528 5532 5536 5540 5543 5546 5548 5551 5554 5556 5557 5560 5564 5568 5572 5575 5577 5579 5583 5586
5397 5393 5391 5388 5385 5383 5385 5388 5388 5406 5427 5440 5448 5455 5459 5466 5473 5481 5488 5495 5500 5505 5509 5513 5518 5521 5524 5528 5531 5535 5538 5540 5543 5546 5550 5551 5553 5556 5560 5562 5565 5568 5570 5574
5395 5390 5387 5384 5383 5380 5378 5379 5380 5394 5415 5427 5439 5446 5452 5459 5465 5472 5478 5484 5489 5494 5498 5502 5506 5510 5513 5516 5519 5523 5526 5529 5532 5535 5538 5541 5543 5546 5549 5552 5554 5557 5559 5562
5392 5388 5385 5382 5378 5375 5374 5376 5380 5394 5411 5426 5435 5442 5448 5455 5462 5468 5473 5477 5480 5484 5488 5491 5495 5499 5503 5505 5508 5512 5515 5517 5520 5523 5526 5529 5532 5534 5537 5540 5543 5545 5547 5550
5387 5386 5384 5383 5380 5379 5377 5382 5388 5400 5409 5421 5430 5439 5446 5451 5456 5461 5466 5470 5473 5476 5478 5482 5485 5488 5491 5495 5498 5501 5505 5508 5511 5513 5516 5518 5520 5522 5525 5529 5531 5534 5537 5539
5389 5387 5386 5384 5384 5385 5387 5390 5400 5408 5414 5422 5429 5435 5440 5445 5449 5454 5458 5461 5464 5466 5469 5472 5474 5477 5480 5484 5488 5491 5495 5499 5502 5505 5508 5510 5511 5514 5516 5518 5521 5523 5525 5527
Wind_Speed
37 36 33 37 37 37 37 35 30 30 31 26 23 21 20 22 22 18 14 22 17 20 38 50 52 54 54 37 45 55 63 61 59 59 55 50 49 47 47 46 45 45 43 41
31 28 33 32 34 33 33 31 29 27 28 29 25 20 17 15 16 19 13 23 32 35 40 41 48 56 58 59 35 40 59 63 55 57 54 53 51 49 48 48 49 48 46 43
32 29 30 30 32 32 32 31 29 28 28 26 27 18 24 13 13 11 14 21 42 46 50 51 49 53 57 56 55 40 42 63 54 60 55 53 52 50 50 50 49 48 46 45
37 33 32 32 34 34 34 33 31 30 30 28 25 23 26 18 10 10 7 12 30 54 61 55 54 50 52 59 55 50 46 48 48 60 54 50 48 46 46 48 48 48 48 49
39 39 38 38 38 38 36 36 34 34 32 31 25 31 22 22 17 14 12 9 16 30 48 59 57 61 53 53 55 56 56 57 41 36 55 54 51 48 47 49 51 50 50 50
41 42 42 40 41 41 40 41 39 38 37 36 29 30 24 25 22 16 18 15 15 21 32 44 60 53 63 60 54 58 57 52 52 38 41 41 48 53 52 50 52 52 51 52
44 45 46 46 46 44 42 43 43 42 41 38 36 33 24 26 25 24 17 19 19 20 27 37 36 43 47 57 55 56 61 58 54 47 39 37 36 37 55 55 54 54 54 54
48 48 47 47 47 46 44 45 46 45 44 43 42 38 26 29 26 25 21 20 22 23 27 35 40 37 44 46 57 55 54 58 57 57 50 46 47 48 47 58 58 57 57 56
54 52 50 47 48 49 49 49 45 47 49 48 45 41 32 30 28 25 26 21 23 24 28 35 32 31 41 45 52 57 55 56 58 61 55 52 50 47 48 57 65 62 57 59
57 57 52 52 50 50 50 49 48 48 48 49 48 45 38 29 27 27 27 23 22 23 24 30 30 28 32 38 47 54 54 55 60 58 56 54 50 47 52 59 70 66 57 56
64 64 58 56 53 51 51 50 50 50 49 48 49 49 38 31 32 29 28 25 21 24 22 21 28 27 28 31 40 46 52 51 55 57 57 56 52 44 45 54 57 62 52 68
68 69 67 61 58 57 58 55 55 56 54 52 50 47 43 37 33 30 30 29 23 24 22 22 24 28 26 29 32 41 47 48 47 48 52 56 49 47 46 41 40 59 72 58
71 73 73 66 66 64 66 59 57 56 55 55 55 47 42 40 38 34 35 32 27 24 26 25 22 25 28 26 30 34 42 42 46 50 50 50 51 50 54 51 49 45 55 55
77 77 77 75 68 62 66 66 63 62 61 54 57 47 46 41 32 34 37 37 33 29 26 26 24 22 25 29 28 33 32 37 42 51 53 54 55 52 55 55 52 53 54 49
74 78 78 81 78 77 76 72 68 64 65 65 51 55 50 45 41 41 46 45 39 33 29 28 28 26 21 23 28 31 32 33 36 42 48 54 54 57 61 51 52 53 56 58
62 72 70 75 76 71 79 78 76 73 68 65 60 59 54 51 47 43 45 44 43 36 31 29 29 29 25 22 23 26 32 35 36 39 41 44 50 55 60 63 61 57 62 60
38 47 53 78 75 72 74 78 76 77 74 69 67 56 54 45 38 38 45 46 40 38 35 31 30 29 33 30 26 24 25 30 36 38 41 43 46 49 56 62 68 72 69 69
18 23 29 48 54 77 85 77 78 77 78 72 68 63 60 53 40 39 42 45 43 40 39 36 35 32 31 32 33 31 29 26 28 34 38 40 46 47 50 55 60 67 70 70
11 15 25 31 32 42 67 79 71 74 73 70 69 65 61 56 50 51 47 48 49 45 43 40 38 38 34 32 33 32 34 30 27 29 33 38 41 43 46 48 51 55 60 65
13 22 25 32 40 38 33 48 70 63 76 70 65 65 60 49 53 40 39 42 45 43 43 43 41 41 38 35 33 34 36 36 32 29 29 34 39 42 44 45 45 47 50 58
10 12 18 22 34 23 14 12 34 63 62 46 44 47 48 53 44 35 36 37 36 41 44 44 42 41 41 36 35 34 36 38 37 37 33 31 37 41 43 45 47 46 48 52
11 13 8 14 19 11 15 10 30 33 44 40 27 32 26 29 32 34 36 37 39 40 40 40 39 39 38 34 34 36 35 37 39 40 40 36 35 38 42 43 44 47 48 47
11 16 13 17 18 22 14 11 15 38 27 24 24 31 30 28 31 36 35 36 37 36 37 37 37 37 38 37 34 35 34 36 37 38 42 42 39 38 40 43 44 45 45 47
10 10 15 15 13 19 16 8 42 43 35 26 27 30 31 30 27 28 29 29 30 31 32 35 35 34 34 35 34 32 32 34 34 34 37 41 43 43 41 41 42 43 45 47
3 6 7 8 11 6 4 28 42 22 19 18 22 24 30 25 27 19 23 26 26 28 29 29 29 30 30 32 34 35 33 32 30 31 34 39 44 44 42 42 42 42 43 45
8 4 1 2 6 11 17 17 33 14 12 15 17 15 13 15 18 22 22 24 24 24 23 24 27 30 31 31 31 30 31 29 31 29 27 26 30 38 41 44 44 43 44 44
Wind_Direction
279 278 278 278 281 287 291 293 296 296 298 305 306 311 330 336 338 325 279 262 252 243 238 241 241 242 241 213 204 206 204 205 210 215 217 216 214 213 215 216 217 219 220 222
279 278 270 277 281 287 289 291 293 296 297 303 301 305 320 325 329 330 290 234 238 237 238 244 246 244 239 217 203 197 205 209 206 216 215 215 214 214 215 218 219 220 220 221
279 279 274 276 278 281 282 286 289 293 295 299 304 306 304 319 307 322 321 239 231 234 238 242 245 248 249 250 244 226 191 205 211 213 215 218 219 218 218 219 221 221 221 222
274 273 272 272 275 277 279 279 285 288 293 297 303 301 292 305 283 290 297 285 242 230 236 245 247 251 254 250 252 251 239 222 211 215 215 219 222 223 225 223 222 223 222 223
271 269 268 268 270 271 273 275 278 279 282 287 297 297 304 297 293 267 266 251 268 252 239 241 247 248 248 248 249 248 252 257 239 201 215 221 220 222 226 228 225 223 223 225
269 267 266 265 263 265 268 269 270 271 275 279 284 289 300 296 291 280 258 249 241 258 254 247 244 250 247 245 242 245 247 252 253 255 219 214 220 224 226 228 232 226 223 225
266 263 262 262 264 264 265 267 270 268 270 274 278 279 287 290 291 288 257 253 248 241 255 261 258 246 240 241 236 237 244 243 246 248 245 241 233 239 230 230 229 230 225 224
266 263 264 262 262 263 262 261 263 268 270 270 272 275 275 280 281 282 270 255 257 258 251 252 260 248 230 222 230 229 232 237 240 242 239 241 239 246 244 233 232 231 227 225
267 266 266 265 263 262 260 260 264 263 262 264 266 268 269 271 275 275 279 267 259 262 251 246 251 249 239 221 217 224 226 231 237 239 242 239 240 245 245 235 231 231 228 227
267 267 263 262 262 261 261 260 259 261 263 264 263 263 271 259 264 269 270 268 257 266 256 243 242 246 242 232 220 217 221 222 232 234 239 243 243 241 252 233 230 225 226 228
269 266 262 259 258 259 259 259 258 258 256 258 260 259 263 262 262 261 261 263 249 258 259 257 244 240 242 236 227 217 218 220 229 236 239 242 242 248 251 230 226 219 228 229
265 265 263 260 256 253 251 249 250 252 254 251 254 255 262 262 258 254 253 259 249 251 259 255 248 242 241 235 233 223 217 215 220 225 232 239 238 242 237 219 245 228 225 229
259 258 260 257 256 254 252 249 249 251 250 246 249 249 253 256 255 252 253 253 248 238 255 256 256 247 239 234 230 230 221 217 214 222 226 232 235 235 239 243 251 245 235 236
253 252 253 253 250 250 252 245 245 246 248 243 247 244 247 252 239 244 254 256 248 246 247 253 253 251 245 241 232 228 228 220 217 219 221 224 228 229 226 228 236 238 252 253
249 249 247 245 244 243 245 247 244 243 242 244 237 242 240 241 239 239 243 244 249 248 242 248 257 261 252 245 241 238 232 228 223 223 222 222 223 223 224 220 226 225 235 243
259 255 248 245 242 244 241 239 241 242 242 241 238 239 238 239 241 237 241 244 245 247 244 251 248 250 254 254 252 244 239 236 231 227 228 226 227 228 226 221 216 226 229 228
265 268 263 254 242 237 231 233 236 238 239 240 241 238 243 243 245 233 232 240 245 246 246 248 247 247 246 253 254 254 251 244 238 234 231 229 229 230 231 230 226 227 228 223
283 290 285 275 261 249 240 234 236 239 235 237 239 241 243 240 238 224 225 234 238 242 248 250 255 254 252 254 253 253 253 250 246 240 238 236 234 231 232 234 233 235 238 237
257 283 296 280 280 271 249 240 237 235 234 237 236 237 240 244 242 227 232 236 240 243 247 249 250 255 252 252 253 252 251 248 248 247 242 238 241 238 234 236 238 239 236 238
277 290 271 267 274 283 274 253 240 238 237 235 236 235 238 246 248 242 237 235 238 239 241 245 247 249 251 250 252 250 248 246 250 252 247 242 238 242 241 239 239 239 241 243
283 260 279 290 284 309 314 234 223 226 234 233 243 248 250 244 243 239 240 234 236 237 240 244 246 248 249 248 248 250 249 244 244 248 251 249 244 240 240 240 240 241 241 243
303 301 291 277 271 311 294 309 226 216 225 233 236 233 216 222 218 214 225 235 239 240 243 245 246 247 249 247 244 247 248 245 242 241 242 246 250 246 243 244 245 245 246 248
309 325 308 283 301 285 300 269 252 190 198 196 207 221 207 203 205 207 217 223 233 240 243 246 249 248 248 250 249 248 248 246 241 240 240 240 244 249 250 246 246 248 248 249
346 322 319 318 277 315 337 231 162 163 144 158 166 178 180 196 205 214 224 230 235 241 244 248 250 250 248 247 248 247 248 249 247 247 244 245 244 243 248 251 249 249 250 249
290 351 344 325 308 43 105 164 161 153 146 155 188 178 206 192 200 219 232 235 244 248 249 248 245 245 245 243 244 245 245 244 246 251 249 252 251 245 242 247 250 251 252 254
25 224 338 192 82 98 98 148 176 165 158 183 192 208 238 231 229 238 237 236 238 238 242 242 238 238 236 234 234 237 238 232 239 243 246 247 254 254 249 246 247 253 255 257